User: anonymous   Login
Location: Caltech
(34.1382°N, 118.1253°W)
Time: 08:11:23
(UTC-07:00)
Language:

Cosmos 1758 Rocket - Orbit

View from above orbital plane
View from above orbital plane
View from above satellite
View from above satellite

Ground track
Ground track

The orbit data is extracted from the following two-line orbital elements,

1 16792U 86046B   16273.49241259  .00000171  00000-0  17894-4 0  9996
2 16792  82.4800  87.6994 0025726  72.6477 341.5900 14.83090923636249
Epoch (UTC): 29 September 2016 11:49:04
Eccentricity: 0.0025726
inclination: 82.4800°
perigee height: 601 km
apogee height: 637 km
right ascension of ascending node: 87.6994°
argument of perigee: 72.6477°
revolutions per day: 14.83090923
mean anomaly at epoch: 341.5900°
orbit number at epoch: 63624

The dashed part of the orbit path shows where the satellite is in the earth's shadow,  

DLR